Weather History for Frankfort, KY

Change the Weather History Date:

Saturday, February 9, 2013

  Actual Average Record
Temperature  
Mean Temperature 34 °F 35 °F  
Max Temperature 44 °F 45 °F 71 °F (1925)
Min Temperature 24 °F 26 °F -10 °F (1899)
Degree Days  
Heating Degree Days 31 30  
Month to date heating degree days 293 275  
Since 1 July heating degree days 2996 3113  
Cooling Degree Days 0 0  
Month to date cooling degree days 0 0  
Year to date cooling degree days 0 0  
Moisture  
Dew Point 23 °F    
Average Humidity 68    
Maximum Humidity 92    
Minimum Humidity 43    
Precipitation  
Precipitation 0.00 in 0.10 in 1.55 in (1950)
Month to date precipitation 0.27 0.99  
Year to date precipitation 5.27 4.25  
Sea Level Pressure  
Sea Level Pressure 30.34 in    
Wind  
Wind Speed 5 mph (East)    
Max Wind Speed 13 mph    
Max Gust Speed 16 mph    
Visibility 10 miles    
Events      
T = Trace of Precipitation, MM = Missing Value Source: NWS Daily Summary

Daily Weather History Graph

Daily Weather History Graph

Search for Another Location

Airport:

Trip Planner

Search our weather history database for the weather conditions in past years. The results will help you decide how hot, cold, wet, or windy it might be!

Date:

Astronomy

Feb. 09, 2013 Rise Set
Actual Time 7:36 AM EST 6:11 PM EST
Civil Twilight 7:09 AM EST 6:39 PM EST
Nautical Twilight 6:37 AM EST 7:10 PM EST
Astronomical Twilight 6:07 AM EST 7:41 PM EST
Moon 6:47 AM EST (2/9) 5:53 PM EST (2/9)
Length of Visible Light 11h 30m
Length of Day
10h 35m
Waning Crescent, 0% of the Moon is Illuminated
Feb 9
Waning Crescent
Feb 10
New
Feb 17
First Quarter
Feb 25
Full
Mar 4
Last Quarter

Hourly Weather History & Observations

Time (EST) Temp. Windchill Dew Point Humidity Pressure Visibility Wind Dir Wind Speed Gust Speed Precip Events Conditions
12:53 AM 33.1 °F 26.1 °F 27.0 °F 78% 30.34 in 10.0 mi NNW 8.1 mph - N/A   Overcast
1:53 AM 32.0 °F 26.4 °F 26.1 °F 79% 30.35 in 10.0 mi NW 5.8 mph - N/A   Overcast
2:53 AM 30.9 °F 25.2 °F 25.0 °F 79% 30.36 in 10.0 mi NNW 5.8 mph - N/A   Overcast
3:53 AM 30.9 °F - 25.0 °F 79% 30.37 in 10.0 mi Calm Calm - N/A   Overcast
4:53 AM 30.0 °F - 24.1 °F 79% 30.36 in 10.0 mi Calm Calm - N/A   Mostly Cloudy
5:25 AM 28.4 °F - 24.8 °F 86% 30.35 in 10.0 mi Calm Calm - N/A   Scattered Clouds
5:34 AM 28.4 °F - 24.8 °F 86% 30.36 in 10.0 mi Calm Calm - N/A   Mostly Cloudy
5:53 AM 28.0 °F - 24.1 °F 85% 30.38 in 10.0 mi Calm Calm - N/A   Overcast
6:50 AM 26.6 °F - 23.0 °F 86% 30.37 in 10.0 mi Calm Calm - N/A   Scattered Clouds
6:53 AM 26.1 °F - 23.0 °F 88% 30.39 in 10.0 mi Calm Calm - N/A   Partly Cloudy
7:53 AM 24.1 °F - 23.0 °F 96% 30.40 in 10.0 mi Calm Calm - N/A   Clear
8:53 AM 28.9 °F 21.1 °F 23.0 °F 78% 30.43 in 10.0 mi ENE 8.1 mph - N/A   Clear
9:53 AM 30.9 °F 22.2 °F 23.0 °F 72% 30.41 in 10.0 mi East 10.4 mph - N/A   Clear
10:53 AM 33.1 °F 25.5 °F 23.0 °F 66% 30.41 in 10.0 mi ESE 9.2 mph - N/A   Clear
11:53 AM 36.0 °F 29.6 °F 21.9 °F 57% 30.40 in 10.0 mi East 8.1 mph - N/A   Clear
12:53 PM 37.9 °F 34.4 °F 23.0 °F 55% 30.38 in 10.0 mi East 4.6 mph - N/A   Clear
1:53 PM 41.0 °F 38.0 °F 21.9 °F 47% 30.35 in 10.0 mi Variable 4.6 mph - N/A   Clear
2:53 PM 42.1 °F 37.1 °F 21.9 °F 45% 30.32 in 10.0 mi East 8.1 mph - N/A   Clear
3:53 PM 43.0 °F 39.5 °F 21.0 °F 42% 30.31 in 10.0 mi ESE 5.8 mph - N/A   Clear
4:53 PM 42.1 °F 37.7 °F 21.0 °F 43% 30.30 in 10.0 mi East 6.9 mph - N/A   Clear
5:53 PM 39.0 °F 34.8 °F 21.9 °F 50% 30.29 in 10.0 mi East 5.8 mph - N/A   Clear
6:53 PM 36.0 °F 31.1 °F 21.9 °F 57% 30.28 in 10.0 mi East 5.8 mph - N/A   Clear
7:53 PM 35.1 °F 31.0 °F 21.9 °F 59% 30.27 in 10.0 mi East 4.6 mph - N/A   Clear
8:53 PM 34.0 °F 28.8 °F 21.9 °F 61% 30.25 in 10.0 mi East 5.8 mph - N/A   Clear
9:53 PM 34.0 °F 27.2 °F 21.9 °F 61% 30.24 in 10.0 mi East 8.1 mph - N/A   Clear
10:53 PM 34.0 °F 28.0 °F 21.0 °F 59% 30.23 in 10.0 mi East 6.9 mph - N/A   Clear
11:53 PM 34.0 °F 28.8 °F 21.0 °F 59% 30.21 in 10.0 mi East 5.8 mph - N/A   Clear